Regional Weather Roundup
Issued by NWS New Orleans/Baton Rouge, LA

Home | Current Version | Previous Version | Text Only | Print | Product List | Glossary On
Versions: 1 2 3 4 5 6 7 8 9 10 11 12 13 14 15 16 17 18 19 20 21 22 23 24 25 26 27 28 29 30 31 32 33 34 35 36 37 38 39 40 41 42 43 44 45 46 47 48 49 50
000
ASUS44 KLIX 020411
RWRLIX
NEW ORLEANS REGIONAL WEATHER ROUNDUP
NATIONAL WEATHER SERVICE NEW ORLEANS LA
1100 PM CDT TUE SEP 01 2015

NOTE: "FAIR" INDICATES FEW OR NO CLOUDS BELOW 12,000 FEET WITH NO
      SIGNIFICANT WEATHER AND/OR OBSTRUCTIONS TO VISIBILITY.
      SKY/WX - SKY CONDITION AND SIGNIFICANT WEATHER.
      TMP - AIR TEMPERATURE.     DP    - DEWPOINT TEMPERATURE.
      RH  - RELATIVE HUMIDITY.   PRES  - PRESSURE.
      HI  - HEAT INDEX.          WCI   - WIND CHILL INDEX.

*  THESE STATIONS ARE NOT NWS OR FAA STATIONS AND ARE NOT UNDER
   NWS QUALITY CONTROL.

LAZ038-040-048-061>063-065>067-069-020500-
SOUTHEAST LOUISIANA

CITY           SKY/WX    TMP DP  RH WIND       PRES   REMARKS
N.O. AUDUBON   NOT AVBL
N.O. INTL ARPT CLOUDY    81  73  76 S3        30.06R
N.O. LAKEFRONT CLOUDY    81  73  76 S6        30.07R
N.O. DOWNTOWN*   N/A     84  73  70 SE6       30.07R
RESERVE*         N/A     78  74  88 CALM      30.07R
SLIDELL        CLOUDY    75  74  96 CALM      30.06R
BATON ROUGE    CLOUDY    79  73  82 W3        30.06R
BOOTHVILLE     MOCLDY    81  76  84 CALM      30.06S
BELLE CHASSE   CLOUDY    77  74  90 CALM      30.06R
BOGALUSA*      NOT AVBL
GALLIANO*      CLOUDY    79  74  86 CALM      30.07R
NEW ROADS*       N/A     77  71  82 S3        30.07R
GONZALES*        N/A     75  75 100 CALM      30.06R
HAMMOND*       CLOUDY    79  72  78 CALM      30.08R
HOUMA*         CLOUDY    76  75  96 CALM      30.07R
PORT FOURCHON* CLEAR     86  72  62 SE8       30.07S

$$

MSZ070-080>082-020500-
SOUTHERN MISSISSIPPI

CITY           SKY/WX    TMP DP  RH WIND       PRES   REMARKS
MCCOMB         MOCLDY    74  68  81 CALM      30.07S
GULFPORT       PTCLDY    76  72  87 CALM      30.06R
BILOXI         PTCLDY    79  75  87 NW1       30.06R
PASCAGOULA     CLEAR     71  71 100 CALM      30.06R

$$

COASTAL OBSERVATIONS
LAKE AND NEARSHORE STATIONS

STATION/POSITION TIME  TEMP    WIND        PRES    WAVE
                       AIR SEA DIR/SP/G            HT/PER
                 (UTC) (F)     (DEG/KT/KT) (MB)    (FT/S)
PASCAGOULA       0300   82     270/  5/  5 1017.1
WAVELAND YACHT   0300   81 86  250/  3/  3 1017.9
GRAND ISLE       0300   85 87  150/  3/  7 1017.8
SOUTHWEST PASS   0300   84 86  110/ 10/ 12 1018.1
NEW CANAL        0300   84 86   CALM  /  2 1016.9
SHELL BEACH      0300   82 87  140/  3/  4 1017.1

OFFSHORE STATIONS

STATION/POSITION TIME  TEMP    WIND        PRES    WAVE
                       AIR SEA DIR/SP/G            HT/PER
                 (UTC) (F)     (DEG/KT/KT) (MB)    (FT/S)
64 S DAUPHIN ISL 0350   84 86  150/  4/  6 1018.1    1/ 4

$$



USA.gov is the U.S. government's official web portal to all federal, state and local government web resources and services.